• In Denmark
  • List of Countries
  • For 7 days
  • Water Temperature
  • Satellite Maps
  • Weather Map
  • Weather Widgets
  • user-avatar
    Login

    Hourly Weather Mostar

    Today, 23 February, Friday

    Time Temperature Precipitation Wind Pressure Humidity
    00:00 +6°C° 0.7 mm 5 mps 749 mmHg 88%
    01:00 +6°C° 0.7 mm 5 mps 748 mmHg 89%
    02:00 +6°C° 1.6 mm 5 mps 748 mmHg 89%
    03:00 +6°C° 1.6 mm 5 mps 748 mmHg 90%
    04:00 +6°C° 1.6 mm 5 mps 748 mmHg 90%
    05:00 +6°C° 1.1 mm 5 mps 748 mmHg 90%
    06:00 +6°C° 1.1 mm 5 mps 748 mmHg 89%
    07:00 +6°C° 1.1 mm 5 mps 748 mmHg 88%
    08:00 +7°C° 0.6 mm 5 mps 748 mmHg 87%
    09:00 +7°C° 0.6 mm 5 mps 748 mmHg 87%
    10:00 +8°C° 0.6 mm 5 mps 748 mmHg 86%
    11:00 +9°C° 0.1 mm 5 mps 748 mmHg 83%
    12:00 +10°C° 0.1 mm 5 mps 748 mmHg 81%
    13:00 +12°C° 0.1 mm 5 mps 748 mmHg 78%
    14:00 +11°C° 0 mm 4 mps 748 mmHg 80%
    15:00 +11°C° 0 mm 4 mps 748 mmHg 81%
    16:00 +11°C° 0 mm 4 mps 748 mmHg 83%
    17:00 +10°C° 0 mm 4 mps 748 mmHg 84%
    18:00 +8°C° 0 mm 4 mps 748 mmHg 86%
    19:00 +8°C° 0 mm 4 mps 748 mmHg 87%
    20:00 +8°C° 0 mm 4 mps 748 mmHg 86%
    21:00 +7°C° 0 mm 4 mps 748 mmHg 86%
    22:00 +7°C° 0 mm 5 mps 748 mmHg 85%
    23:00 +7°C° 0 mm 5 mps 748 mmHg 85%

    Tomorrow, 24 February, Saturday

    Time Temperature Precipitation Wind Pressure Humidity
    00:00 +7°C° 0 mm 5 mps 748 mmHg 84%
    01:00 +7°C° 0 mm 4 mps 748 mmHg 84%
    02:00 +6°C° 0 mm 5 mps 748 mmHg 84%
    03:00 +6°C° 0 mm 5 mps 747 mmHg 83%
    04:00 +6°C° 0 mm 5 mps 747 mmHg 83%
    05:00 +6°C° 0 mm 5 mps 747 mmHg 83%
    06:00 +6°C° 0 mm 5 mps 747 mmHg 82%
    07:00 +6°C° 0 mm 5 mps 748 mmHg 82%
    08:00 +7°C° 0 mm 5 mps 748 mmHg 81%
    09:00 +8°C° 0 mm 5 mps 748 mmHg 79%
    10:00 +8°C° 0 mm 4 mps 748 mmHg 78%
    11:00 +10°C° 0 mm 4 mps 748 mmHg 77%
    12:00 +10°C° 0 mm 4 mps 749 mmHg 76%
    13:00 +11°C° 0 mm 4 mps 749 mmHg 75%
    14:00 +10°C° 0 mm 4 mps 749 mmHg 75%
    15:00 +10°C° 0 mm 4 mps 749 mmHg 76%
    16:00 +10°C° 0 mm 4 mps 749 mmHg 76%
    17:00 +7°C° 0 mm 4 mps 749 mmHg 77%
    18:00 +6°C° 0 mm 4 mps 749 mmHg 78%
    19:00 +5°C° 0 mm 4 mps 750 mmHg 79%
    20:00 +5°C° 0.1 mm 4 mps 750 mmHg 79%
    21:00 +4°C° 0.1 mm 4 mps 750 mmHg 78%
    22:00 +3°C° 0.1 mm 4 mps 751 mmHg 78%
    23:00 +2°C° 0.1 mm 5 mps 751 mmHg 77%

    Day after tomorrow, 25 February, Sunday

    Time Temperature Precipitation Wind Pressure Humidity
    00:00 +1°C° 0.1 mm 5 mps 751 mmHg 77%
    01:00 +1°C° 0.1 mm 5 mps 751 mmHg 76%
    02:00 +1°C° 0.3 mm 5 mps 751 mmHg 76%
    03:00 0°C° 0.3 mm 5 mps 751 mmHg 76%
    04:00 -1°C° 0.3 mm 6 mps 751 mmHg 76%
    05:00 -2°C° 0.6 mm 6 mps 751 mmHg 78%
    06:00 -2°C° 0.6 mm 6 mps 751 mmHg 79%
    07:00 -3°C° 0.6 mm 6 mps 752 mmHg 81%
    08:00 -3°C° 0.6 mm 6 mps 752 mmHg 82%
    09:00 -3°C° 0.6 mm 6 mps 752 mmHg 83%
    10:00 -3°C° 0.6 mm 6 mps 752 mmHg 85%
    11:00 -3°C° 0.6 mm 6 mps 752 mmHg 85%
    12:00 -3°C° 0.6 mm 6 mps 752 mmHg 86%
    13:00 -3°C° 0.6 mm 6 mps 752 mmHg 87%
    14:00 -4°C° 0.6 mm 6 mps 752 mmHg 87%
    15:00 -4°C° 0.6 mm 6 mps 751 mmHg 88%
    16:00 -4°C° 0.6 mm 6 mps 751 mmHg 88%
    17:00 -4°C° 0.6 mm 6 mps 751 mmHg 88%
    18:00 -5°C° 0.6 mm 6 mps 751 mmHg 89%
    19:00 -5°C° 0.6 mm 5 mps 751 mmHg 89%
    20:00 -5°C° 0.4 mm 5 mps 751 mmHg 88%
    21:00 -5°C° 0.4 mm 5 mps 751 mmHg 87%
    22:00 -5°C° 0.4 mm 5 mps 751 mmHg 86%
    23:00 -6°C° 0.3 mm 5 mps 751 mmHg 86%

    26 February, Monday

    Time Temperature Precipitation Wind Pressure Humidity
    00:00 -6°C° 0.3 mm 5 mps 750 mmHg 85%
    01:00 -6°C° 0.3 mm 5 mps 750 mmHg 84%
    02:00 -6°C° 0.1 mm 5 mps 749 mmHg 84%
    03:00 -6°C° 0.1 mm 5 mps 749 mmHg 83%
    04:00 -6°C° 0.1 mm 5 mps 748 mmHg 82%
    05:00 -6°C° 0 mm 5 mps 748 mmHg 81%
    06:00 -6°C° 0 mm 5 mps 747 mmHg 81%
    07:00 -6°C° 0 mm 5 mps 747 mmHg 80%
    08:00 -6°C° 0 mm 5 mps 747 mmHg 79%
    09:00 -5°C° 0 mm 5 mps 747 mmHg 79%
    10:00 -3°C° 0 mm 4 mps 746 mmHg 78%
    11:00 -2°C° 0.1 mm 4 mps 746 mmHg 78%
    12:00 -2°C° 0.1 mm 4 mps 746 mmHg 79%
    13:00 -1°C° 0.1 mm 4 mps 746 mmHg 79%
    14:00 -1°C° 0.2 mm 4 mps 745 mmHg 80%
    15:00 0°C° 0.2 mm 3 mps 745 mmHg 81%
    16:00 -1°C° 0.2 mm 3 mps 745 mmHg 82%
    17:00 -1°C° 0.2 mm 3 mps 746 mmHg 84%
    18:00 -2°C° 0.2 mm 3 mps 746 mmHg 85%
    19:00 -2°C° 0.2 mm 3 mps 746 mmHg 86%
    20:00 -4°C° 0.2 mm 3 mps 747 mmHg 87%
    21:00 -4°C° 0.2 mm 3 mps 747 mmHg 87%
    22:00 -5°C° 0.2 mm 4 mps 747 mmHg 88%
    23:00 -5°C° 0.2 mm 4 mps 747 mmHg 88%

    27 February, Tuesday

    Time Temperature Precipitation Wind Pressure Humidity
    00:00 -5°C° 0.2 mm 4 mps 747 mmHg 88%
    01:00 -5°C° 0.2 mm 4 mps 747 mmHg 88%
    02:00 -5°C° 0.1 mm 4 mps 747 mmHg 87%
    03:00 -7°C° 0.1 mm 4 mps 746 mmHg 86%
    04:00 -7°C° 0.1 mm 4 mps 746 mmHg 86%
    05:00 -6°C° 0.1 mm 3 mps 746 mmHg 85%
    06:00 -6°C° 0.1 mm 3 mps 747 mmHg 85%
    07:00 -6°C° 0.1 mm 3 mps 747 mmHg 84%
    08:00 -5°C° 0 mm 3 mps 747 mmHg 82%
    09:00 -4°C° 0 mm 3 mps 747 mmHg 79%
    10:00 -2°C° 0 mm 3 mps 748 mmHg 77%
    11:00 -1°C° 0 mm 2 mps 748 mmHg 75%
    12:00 -1°C° 0 mm 2 mps 748 mmHg 73%
    13:00 +2°C° 0 mm 1 mps 748 mmHg 70%
    14:00 +2°C° 0 mm 1 mps 748 mmHg 71%
    15:00 +2°C° 0 mm 1 mps 748 mmHg 71%
    16:00 +2°C° 0 mm 1 mps 748 mmHg 72%
    17:00 -1°C° 0.1 mm 2 mps 749 mmHg 75%
    18:00 -2°C° 0.1 mm 2 mps 750 mmHg 78%
    19:00 -3°C° 0.1 mm 2 mps 750 mmHg 81%
    20:00 -3°C° 0.1 mm 2 mps 751 mmHg 82%
    21:00 -4°C° 0.1 mm 2 mps 751 mmHg 83%
    22:00 -5°C° 0.1 mm 3 mps 751 mmHg 84%
    23:00 -5°C° 0.1 mm 3 mps 752 mmHg 85%

    28 February, Wednesday

    Time Temperature Precipitation Wind Pressure Humidity
    00:00 -5°C° 0.1 mm 3 mps 752 mmHg 86%
    01:00 -5°C° 0.1 mm 3 mps 752 mmHg 86%
    02:00 -5°C° 0 mm 2 mps 752 mmHg 86%
    03:00 -5°C° 0 mm 2 mps 752 mmHg 87%
    04:00 -6°C° 0 mm 2 mps 752 mmHg 87%
    05:00 -6°C° 0 mm 2 mps 753 mmHg 87%
    06:00 -7°C° 0 mm 2 mps 753 mmHg 86%
    07:00 -7°C° 0 mm 2 mps 753 mmHg 86%
    08:00 -5°C° 0 mm 2 mps 754 mmHg 82%
    09:00 -3°C° 0 mm 2 mps 754 mmHg 78%
    10:00 +1°C° 0 mm 1 mps 754 mmHg 74%
    11:00 +2°C° 0 mm 1 mps 754 mmHg 68%
    12:00 +3°C° 0 mm 1 mps 753 mmHg 63%
    13:00 +3°C° 0 mm 1 mps 753 mmHg 58%
    14:00 +3°C° 0 mm 1 mps 753 mmHg 60%
    15:00 +4°C° 0 mm 1 mps 753 mmHg 62%
    16:00 +3°C° 0 mm 2 mps 753 mmHg 64%
    17:00 +2°C° 0.1 mm 2 mps 753 mmHg 69%
    18:00 0°C° 0.1 mm 3 mps 754 mmHg 75%
    19:00 -1°C° 0.1 mm 3 mps 754 mmHg 80%
    20:00 -2°C° 0.4 mm 4 mps 754 mmHg 82%
    21:00 -2°C° 0.4 mm 4 mps 754 mmHg 85%
    22:00 -2°C° 0.4 mm 4 mps 754 mmHg 87%
    23:00 -1°C° 0.5 mm 5 mps 754 mmHg 88%
    Show more